Wind_Speed
26 26 25 23 23 22 22 22 22 23 23 23 22 20 19 19 19 20 20 21 22 22 22 21 21 20 17 16 14 14 13 13 12 10 8 7 8 8 8 9 9 10
27 26 26 25 24 23 22 23 23 23 24 24 24 23 22 21 22 22 22 22 23 23 23 23 23 21 19 18 16 16 15 15 14 12 10 9 9 9 9 10 9 9
27 27 27 25 24 23 22 22 23 23 24 25 26 25 25 24 24 24 24 24 25 25 25 25 24 23 21 19 18 18 17 17 16 15 13 12 11 10 11 11 10 10
28 28 27 26 24 22 22 22 23 23 23 24 26 26 27 26 26 26 26 26 26 27 27 26 26 24 22 20 19 19 18 18 18 17 15 14 13 12 12 12 12 11
29 28 27 26 25 23 23 23 23 23 22 22 24 26 28 28 28 28 28 27 28 28 28 27 27 25 23 21 20 19 19 19 18 18 17 16 15 14 14 14 13 12
30 30 29 28 27 25 24 23 22 22 22 21 22 25 27 29 29 29 28 28 28 29 29 28 27 26 23 22 21 21 20 20 20 19 18 18 17 16 15 15 14 14
30 30 30 29 28 27 26 24 23 23 22 22 22 24 26 28 29 29 29 29 29 29 29 29 28 26 24 23 22 22 22 22 21 20 20 20 19 18 17 16 16 15
29 30 30 30 29 29 28 27 25 24 24 23 23 24 26 28 29 30 30 30 30 30 30 30 29 27 26 25 24 23 23 23 22 22 21 21 21 20 19 18 18 17
25 27 29 30 31 30 30 29 28 26 25 25 25 24 26 28 29 30 31 31 31 31 31 30 30 29 27 26 25 24 23 23 23 22 22 22 22 22 21 21 19 18
23 24 26 28 29 29 29 29 29 28 27 26 26 26 26 27 29 31 32 32 32 32 31 31 31 30 29 28 26 24 24 23 23 23 23 23 23 23 23 22 20 19
25 24 25 26 26 27 27 27 28 28 28 28 28 28 28 28 30 32 34 34 33 32 32 31 31 30 30 29 27 25 24 24 25 25 24 24 24 24 23 22 21 19
27 27 27 26 26 26 26 26 27 28 28 28 29 29 29 30 31 34 35 35 35 34 33 32 32 31 31 30 29 27 26 26 26 26 25 25 24 24 23 22 21 19
28 28 28 27 27 26 26 26 26 27 28 28 29 30 30 31 32 35 36 36 36 35 34 34 33 33 32 32 31 29 28 28 27 26 26 25 25 24 24 23 21 20
29 29 29 29 28 27 27 27 26 27 28 28 29 30 31 32 33 35 37 38 38 37 36 36 35 35 34 34 33 31 30 29 28 27 27 27 26 26 24 23 21 20
29 29 29 29 29 28 28 28 27 27 28 29 29 30 32 33 34 35 37 39 39 38 38 38 38 37 36 35 34 33 32 31 29 28 28 28 28 27 25 24 22 20
30 30 30 29 29 28 28 28 28 28 29 30 30 31 32 33 34 36 38 39 40 40 39 39 39 39 38 36 35 34 33 32 30 29 29 29 30 28 26 24 23 21
31 30 30 30 30 29 29 29 29 29 29 30 30 30 31 32 34 36 38 39 41 41 40 40 40 40 39 38 37 36 35 34 32 30 30 31 31 30 28 25 24 22
31 31 30 30 30 30 30 30 29 29 29 30 30 30 31 31 33 35 37 39 40 41 41 41 40 40 40 40 39 38 36 35 33 32 32 32 32 32 30 27 25 23
31 31 31 31 31 31 31 31 31 31 30 30 30 30 30 31 32 34 36 38 40 41 42 42 41 41 42 42 41 39 38 37 35 34 34 34 34 34 34 31 27 25
31 32 32 32 33 33 33 33 34 34 33 32 32 32 32 32 33 34 35 37 39 41 42 42 42 42 43 43 42 41 40 39 37 36 36 35 35 35 36 35 31 28
31 32 32 33 33 34 35 36 36 36 36 35 34 34 34 34 34 34 35 36 38 41 42 43 43 43 44 44 44 42 41 40 39 38 37 37 36 37 38 37 33 30
30 31 31 32 33 34 35 36 37 38 38 38 37 37 36 36 36 36 36 37 38 40 42 44 44 44 44 45 45 43 42 42 42 41 40 38 37 38 39 39 36 32
29 30 30 31 32 33 34 35 36 38 39 40 40 40 39 39 38 38 38 38 39 40 42 43 44 45 45 45 46 45 44 44 43 43 42 40 39 39 40 40 37 34
30 30 30 32 33 35 35 35 35 36 38 39 41 42 42 41 41 41 41 40 41 41 42 42 44 46 46 46 46 46 45 45 44 44 43 41 40 40 41 41 39 35
30 30 31 33 34 34 34 35 35 35 36 38 39 42 44 44 44 44 44 43 43 44 44 44 44 46 46 47 47 47 46 45 44 45 45 43 42 42 44 43 40 36
27 27 28 29 29 29 30 30 31 32 34 36 38 41 44 45 46 47 47 47 46 47 47 47 46 47 47 47 47 47 47 46 46 46 47 45 43 44 45 45 42 37
Wind_Direction
227 228 230 231 230 229 228 227 226 226 226 225 224 222 215 207 204 206 206 208 209 211 214 215 216 219 223 226 228 232 237 243 250 260 272 292 313 325 335 343 350 355
231 230 231 232 231 230 230 229 228 226 225 224 224 222 218 212 208 207 207 208 210 212 215 216 217 219 222 226 231 234 239 245 251 259 269 279 294 307 317 325 331 336
233 233 233 233 232 231 231 233 231 228 225 223 222 220 218 215 211 209 209 210 212 214 216 217 218 219 220 224 230 235 240 246 252 259 266 273 283 294 303 310 315 319
235 235 235 236 234 231 231 233 234 232 228 224 221 219 219 217 215 212 211 212 214 215 216 217 219 218 218 222 228 233 239 245 251 257 264 269 276 285 291 297 303 307
236 236 236 236 235 232 230 230 233 234 232 227 222 220 219 219 217 215 214 215 215 216 217 218 219 218 217 220 226 231 237 244 250 256 263 268 272 278 284 289 294 299
236 235 235 235 234 234 233 232 232 235 235 231 226 222 220 220 219 218 217 217 217 218 219 218 219 219 217 219 224 230 237 243 248 254 260 266 270 275 280 284 288 292
236 235 234 234 233 235 237 236 235 235 235 235 230 224 221 220 220 219 219 219 219 219 220 220 220 220 219 219 222 228 236 242 247 252 257 262 268 272 277 280 282 284
234 235 235 235 235 236 238 239 238 236 235 235 232 227 223 221 220 219 219 220 220 220 220 221 222 222 221 220 222 227 235 242 246 250 254 259 264 270 274 277 278 278
232 232 233 235 237 239 240 240 240 238 235 234 234 230 226 222 221 220 220 221 221 220 219 220 222 223 223 222 222 227 235 242 247 251 255 258 263 268 272 275 276 275
234 232 232 233 235 237 237 237 237 237 234 232 232 231 227 224 222 220 220 221 221 221 219 219 221 223 224 224 224 228 235 242 248 252 255 259 262 265 269 272 273 274
235 235 235 235 234 235 234 234 234 233 232 230 230 230 227 225 222 221 220 220 221 221 220 220 221 223 225 227 228 230 236 242 247 251 255 257 259 262 265 268 270 272
233 235 237 238 238 237 235 233 232 232 231 229 228 228 227 225 223 222 222 221 220 221 222 222 222 224 227 230 231 233 236 241 245 249 252 255 257 260 262 265 267 269
230 233 237 239 239 240 238 236 234 233 232 231 228 227 226 225 223 223 222 222 221 221 222 224 224 225 228 230 232 234 236 240 245 249 252 254 256 258 260 262 263 266
228 231 234 237 239 240 240 238 237 234 233 232 230 228 227 226 225 224 223 223 223 222 221 223 225 226 228 230 232 234 237 240 244 248 251 254 255 256 257 258 258 263
225 229 232 235 238 238 239 238 237 235 234 233 232 230 229 227 226 225 224 224 224 224 223 223 225 227 228 230 232 234 237 240 244 247 251 253 254 253 254 255 257 263
224 228 231 234 237 238 239 239 238 237 235 234 233 232 231 229 228 227 226 225 225 225 225 225 226 228 229 230 232 234 237 240 243 245 249 252 253 251 250 253 257 263
224 228 230 233 236 238 240 240 240 240 239 237 236 235 233 231 229 229 228 226 226 227 228 228 228 229 229 230 231 233 236 239 241 243 246 250 252 251 249 250 255 261
226 228 231 234 236 239 241 243 243 243 242 241 239 238 236 234 231 231 230 229 228 228 229 230 230 229 229 230 231 232 235 237 239 241 243 246 251 253 252 251 254 258
227 229 232 235 237 240 242 243 245 245 243 242 242 241 239 237 235 233 232 232 231 231 231 232 232 230 230 231 231 232 234 236 237 238 241 244 247 251 253 253 255 258
229 231 234 236 238 240 241 243 245 246 245 244 243 243 242 240 238 236 235 234 234 233 233 233 233 231 231 231 232 232 234 236 237 237 239 241 244 248 251 253 255 258
231 234 236 238 239 241 242 243 245 247 248 247 245 244 244 243 241 240 239 237 236 235 235 235 234 233 232 232 232 233 234 236 238 237 237 239 241 244 248 252 254 256
234 236 237 239 240 241 243 244 245 247 249 249 249 247 246 246 244 243 242 241 239 238 237 237 236 235 234 233 233 233 234 235 237 238 238 238 239 242 246 250 252 254
237 239 240 240 240 241 243 243 245 247 249 250 251 251 250 249 248 247 246 245 244 243 242 241 239 238 237 235 234 234 234 235 237 238 239 238 239 242 245 248 251 252
242 242 242 242 242 243 244 244 244 245 246 247 249 251 252 252 251 250 249 248 247 247 247 245 243 242 240 237 235 235 235 235 237 239 240 239 238 241 244 247 250 251
248 247 245 245 246 247 248 248 247 245 246 246 247 249 251 252 252 252 251 249 248 248 248 247 245 244 243 240 238 237 236 236 236 238 239 238 237 239 243 247 249 250
249 250 250 249 249 250 252 253 252 250 249 249 248 249 250 250 251 252 252 251 250 248 247 246 245 244 244 243 240 238 238 237 237 238 239 239 237 238 242 247 250 250
Height
3191 3192 3193 3195 3196 3198 3199 3201 3202 3203 3205 3206 3207 3209 3211 3212 3213 3214 3215 3217 3218 3219 3220 3221 3222 3223 3224 3224 3225 3225 3226 3226 3226 3227 3227 3227 3226 3226 3226 3225 3225 3224
3188 3190 3191 3193 3194 3196 3197 3199 3200 3201 3203 3204 3206 3208 3209 3210 3211 3212 3213 3214 3216 3217 3217 3218 3219 3221 3222 3222 3223 3224 3224 3225 3225 3225 3226 3226 3225 3225 3225 3225 3224 3224
3186 3188 3189 3190 3192 3194 3195 3196 3198 3199 3201 3202 3204 3206 3207 3208 3209 3210 3211 3212 3213 3214 3215 3216 3217 3218 3220 3220 3221 3222 3222 3223 3223 3224 3224 3224 3224 3224 3224 3224 3223 3223
3183 3185 3187 3188 3190 3192 3193 3194 3195 3197 3198 3200 3202 3203 3205 3206 3207 3208 3209 3210 3211 3212 3213 3214 3215 3216 3217 3218 3219 3220 3220 3221 3221 3222 3222 3222 3223 3223 3222 3222 3222 3222
3181 3183 3184 3186 3188 3189 3190 3191 3193 3194 3196 3198 3200 3201 3202 3204 3205 3205 3206 3207 3209 3210 3211 3211 3212 3214 3215 3216 3217 3217 3218 3219 3219 3220 3220 3221 3221 3221 3221 3220 3220 3220
3178 3180 3182 3183 3185 3186 3187 3189 3191 3192 3194 3196 3197 3198 3200 3201 3202 3203 3204 3205 3207 3208 3208 3209 3210 3211 3212 3213 3214 3215 3216 3216 3217 3218 3218 3219 3219 3219 3219 3219 3218 3218
3175 3177 3179 3180 3182 3183 3185 3186 3188 3190 3192 3193 3194 3196 3197 3198 3199 3200 3202 3203 3204 3205 3206 3207 3208 3209 3210 3211 3212 3212 3213 3214 3215 3215 3216 3216 3216 3217 3217 3217 3216 3216
3172 3174 3176 3177 3179 3180 3181 3183 3185 3187 3189 3190 3191 3193 3194 3195 3196 3198 3199 3200 3201 3202 3204 3205 3205 3206 3207 3208 3209 3210 3211 3211 3212 3213 3214 3214 3214 3214 3215 3215 3214 3214
3169 3171 3173 3174 3175 3177 3178 3180 3182 3184 3186 3187 3188 3190 3191 3192 3193 3195 3196 3197 3198 3199 3201 3202 3202 3204 3205 3206 3207 3207 3208 3209 3210 3210 3211 3211 3212 3212 3212 3212 3212 3211
3166 3167 3169 3170 3172 3173 3175 3177 3179 3180 3182 3184 3185 3186 3187 3189 3190 3191 3192 3193 3194 3196 3198 3199 3200 3201 3202 3203 3204 3205 3206 3206 3207 3207 3208 3209 3209 3209 3210 3210 3209 3209
3163 3164 3166 3167 3168 3170 3172 3174 3175 3177 3178 3180 3181 3183 3184 3186 3187 3188 3189 3190 3191 3193 3195 3196 3197 3198 3199 3200 3201 3202 3203 3204 3204 3205 3205 3206 3206 3207 3207 3207 3207 3206
3160 3161 3162 3164 3166 3167 3169 3170 3172 3173 3174 3176 3178 3179 3181 3182 3183 3184 3185 3186 3188 3190 3192 3193 3195 3195 3196 3197 3198 3200 3200 3201 3201 3202 3202 3203 3203 3204 3204 3204 3204 3204
3157 3159 3160 3162 3163 3164 3166 3168 3169 3170 3171 3172 3174 3175 3177 3178 3179 3180 3182 3183 3185 3187 3189 3190 3191 3192 3193 3194 3195 3196 3197 3198 3198 3199 3199 3200 3200 3201 3201 3201 3201 3201
3155 3156 3158 3159 3160 3162 3163 3164 3166 3167 3168 3169 3170 3171 3173 3174 3176 3177 3178 3180 3181 3183 3185 3187 3188 3188 3189 3190 3191 3193 3193 3194 3195 3196 3196 3196 3197 3198 3198 3198 3198 3198
3152 3153 3155 3156 3157 3159 3160 3161 3162 3164 3165 3166 3166 3168 3169 3171 3172 3174 3175 3176 3177 3179 3181 3183 3183 3184 3185 3187 3188 3189 3190 3191 3192 3193 3193 3193 3193 3194 3195 3195 3195 3196
3149 3150 3152 3153 3154 3155 3157 3158 3159 3160 3161 3162 3163 3164 3166 3167 3169 3170 3170 3172 3173 3175 3177 3178 3179 3180 3182 3184 3185 3186 3187 3188 3189 3190 3190 3190 3190 3191 3191 3192 3193 3193
3145 3147 3148 3150 3151 3152 3154 3155 3156 3157 3158 3159 3160 3161 3162 3164 3165 3166 3167 3168 3170 3171 3173 3174 3175 3177 3179 3180 3181 3183 3184 3184 3185 3187 3187 3187 3186 3187 3188 3189 3190 3191
3142 3143 3145 3147 3148 3149 3150 3152 3153 3154 3155 3156 3157 3158 3159 3160 3161 3162 3163 3164 3165 3167 3168 3169 3171 3173 3175 3176 3177 3179 3180 3181 3182 3183 3183 3184 3183 3183 3184 3185 3187 3188
3139 3140 3142 3143 3145 3146 3147 3149 3150 3150 3151 3152 3154 3155 3156 3157 3157 3158 3160 3161 3161 3163 3164 3165 3167 3169 3171 3172 3173 3175 3176 3177 3178 3179 3180 3180 3180 3180 3180 3181 3183 3185
3136 3137 3139 3140 3141 3143 3144 3145 3146 3146 3148 3149 3150 3151 3152 3153 3154 3155 3156 3157 3157 3158 3160 3161 3162 3164 3166 3168 3169 3171 3172 3172 3173 3174 3175 3176 3177 3177 3176 3177 3179 3181
3133 3134 3136 3137 3138 3139 3140 3141 3142 3143 3144 3145 3146 3147 3148 3149 3150 3151 3152 3153 3153 3154 3155 3156 3158 3160 3161 3163 3165 3167 3168 3168 3169 3169 3171 3172 3173 3173 3172 3173 3175 3177
3129 3131 3132 3133 3134 3135 3135 3137 3138 3139 3140 3141 3142 3143 3144 3145 3146 3147 3148 3148 3149 3150 3151 3151 3153 3155 3156 3158 3160 3162 3163 3163 3163 3164 3166 3167 3169 3169 3168 3169 3170 3173
3126 3127 3128 3129 3130 3130 3131 3133 3134 3135 3136 3137 3138 3139 3139 3141 3142 3143 3144 3145 3145 3146 3146 3147 3148 3149 3151 3153 3155 3157 3158 3158 3159 3160 3161 3163 3164 3165 3164 3164 3165 3168
3121 3122 3123 3124 3125 3126 3127 3128 3130 3131 3132 3133 3134 3134 3135 3136 3137 3138 3139 3140 3141 3141 3142 3143 3144 3145 3146 3149 3151 3152 3153 3153 3154 3155 3156 3158 3160 3160 3159 3159 3161 3163
3117 3118 3119 3120 3121 3121 3123 3124 3125 3126 3127 3128 3129 3130 3130 3132 3132 3133 3134 3135 3136 3137 3137 3138 3139 3140 3141 3144 3146 3147 3148 3149 3150 3150 3150 3152 3154 3155 3154 3154 3156 3159
3113 3114 3115 3116 3117 3118 3119 3120 3121 3122 3122 3123 3124 3124 3125 3126 3127 3128 3129 3130 3131 3131 3132 3133 3133 3134 3135 3138 3140 3142 3143 3144 3145 3145 3145 3147 3149 3149 3149 3149 3151 3153